Location: Acheville
(50.3840°N, 2.8827°E)
Time: 19:31:58
(UTC+00:00)

NOSS 3-1 (C) - Pass Details

Date: 24 October 2021
Orbit: 717 x 1491 km, 63.4° (Epoch: 25 November)

Event Time Altitude Azimuth Distance (km) Brightness Sun altitude
Rises 18:12:04 0° 215° (SW) 3,202 6.7 -15.5°
Reaches altitude 10° 18:14:18 10° 214° (SW) 2,335 6.0 -15.9°
Maximum altitude 18:19:37 77° 129° (SE) 896 3.2 -16.7°
Enters shadow 18:25:06 14° 46° (NE) 2,445 5.2 -17.6°
